Weather History for Lawrence, MA

Change the Weather History Date:

Tuesday, May 20, 2014

  Actual Average Record
Temperature  
Mean Temperature 60 °F -  
Max Temperature 73 °F 67 °F 90 °F (1986)
Min Temperature 48 °F 48 °F 35 °F (2002)
Degree Days  
Heating Degree Days 6    
Growing Degree Days 10 (Base 50)    
Moisture  
Dew Point 43 °F    
Average Humidity 55    
Maximum Humidity 77    
Minimum Humidity 32    
Precipitation  
Precipitation 0.00 in - - ()
Sea Level Pressure  
Sea Level Pressure 29.99 in    
Wind  
Wind Speed 6 mph (NNW)    
Max Wind Speed 16 mph    
Max Gust Speed 23 mph    
Visibility 10 miles    
Events      
Averages and records for this station are not official NWS values.
T = Trace of Precipitation, MM = Missing Value Source: NWS Daily Summary

Daily Weather History Graph

Daily Weather History Graph

Search for Another Location

Airport:

Trip Planner

Search our weather history database for the weather conditions in past years. The results will help you decide how hot, cold, wet, or windy it might be!

Date:

Astronomy

May. 20, 2014 Rise Set
Actual Time 5:17 AM EDT 8:05 PM EDT
Civil Twilight 4:44 AM EDT 8:38 PM EDT
Nautical Twilight 4:02 AM EDT 9:20 PM EDT
Astronomical Twilight 3:14 AM EDT 10:08 PM EDT
Moon 12:30 AM EDT (5/20) 11:24 AM EDT (5/20)
Length of Visible Light 15h 54m
Length of Day
14h 47m
Waning Gibbous, 60% of the Moon is Illuminated
May 20
Waning Gibbous
May 21
Last Quarter
May 28
New
Jun 5
First Quarter
Jun 13
Full

Hourly Weather History & Observations

Time (EDT) Temp. Dew Point Humidity Pressure Visibility Wind Dir Wind Speed Gust Speed Precip Events Conditions
12:54 AM 52.0 °F 45.0 °F 77% 30.01 in 10.0 mi Variable 3.5 mph - N/A   Overcast
1:54 AM 51.8 °F 44.6 °F 76% 30.01 in 10.0 mi West 3.5 mph - N/A   Overcast
2:54 AM 52.0 °F 44.1 °F 74% 30.00 in 10.0 mi West 3.5 mph - N/A   Overcast
3:54 AM 50.0 °F 43.0 °F 77% 30.01 in 10.0 mi Calm Calm - N/A   Scattered Clouds
4:54 AM 50.0 °F 42.1 °F 74% 30.01 in 10.0 mi North 3.5 mph - N/A   Mostly Cloudy
5:54 AM 48.9 °F 42.1 °F 77% 30.02 in 10.0 mi Calm Calm - N/A   Clear
6:54 AM 53.1 °F 42.1 °F 66% 30.03 in 10.0 mi NNW 4.6 mph - N/A   Clear
7:54 AM 57.9 °F 43.0 °F 58% 30.02 in 10.0 mi NNW 6.9 mph - N/A   Clear
8:54 AM 62.1 °F 41.0 °F 46% 30.01 in 10.0 mi NNW 15.0 mph 18.4 mph N/A   Clear
9:54 AM 64.0 °F 39.0 °F 40% 30.00 in 10.0 mi NNW 13.8 mph 23.0 mph N/A   Clear
10:54 AM 66.9 °F 39.0 °F 36% 29.99 in 10.0 mi North 12.7 mph 23.0 mph N/A   Clear
11:54 AM 69.1 °F 41.0 °F 36% 29.98 in 10.0 mi North 15.0 mph 23.0 mph N/A   Clear
11:57 AM 69.1 °F 39.9 °F 35% 29.98 in 10.0 mi North 16.1 mph 23.0 mph N/A   Scattered Clouds
12:54 PM 68.0 °F 39.0 °F 35% 29.98 in 10.0 mi NNW 8.1 mph - N/A   Scattered Clouds
1:54 PM 71.1 °F 41.0 °F 34% 29.97 in 10.0 mi North 12.7 mph - N/A   Scattered Clouds
2:54 PM 70.0 °F 39.9 °F 33% 29.96 in 10.0 mi NNW 10.4 mph - N/A   Overcast
3:54 PM 71.1 °F 39.9 °F 32% 29.96 in 10.0 mi NNW 8.1 mph - N/A   Overcast
4:54 PM 71.1 °F 39.9 °F 32% 29.95 in 10.0 mi NNE 9.2 mph - N/A   Overcast
5:54 PM 68.0 °F 46.0 °F 45% 29.95 in 10.0 mi Variable 4.6 mph - N/A   Overcast
6:54 PM 66.0 °F 45.0 °F 47% 29.96 in 10.0 mi Variable 3.5 mph - N/A   Mostly Cloudy
7:54 PM 64.0 °F 45.0 °F 50% 29.97 in 10.0 mi SE 3.5 mph - N/A   Mostly Cloudy
8:54 PM 57.9 °F 46.0 °F 65% 29.99 in 10.0 mi Calm Calm - N/A   Clear
9:54 PM 55.9 °F 46.9 °F 72% 30.00 in 10.0 mi Calm Calm - N/A   Clear
10:54 PM 54.0 °F 46.0 °F 75% 30.00 in 10.0 mi Calm Calm - N/A   Clear
11:54 PM 52.0 °F 45.0 °F 77% 29.99 in 10.0 mi Calm Calm - N/A   Clear